This demonstration page uses our WeatherBlox Daily Observations layout. Learn more.

Left ArrowRight Arrow

38.89511, -77.03637

Hourly Observations for January 25, 2019

Temp ( °F °C ) Dew Point ( °F °C ) Humidity (%) Winds ( mph kmh ) Pressure ( in mb ) Visibility ( mi km ) Precip ( " mm )
12:52 am 00:52 Clear 37 2.8 22 -5.6 54 54 WNW 10 17 29.93 1014 10 16 0.00 0.00
1:52 am 01:52 Clear 36 2.2 21 -6.1 55 55 NW 6 9 29.94 1014 10 16 0.00 0.00
2:52 am 02:52 Mostly Clear 35 1.7 21 -6.1 57 57 W 7 11 29.96 1015 10 16 0.00 0.00
3:26 am 03:26 Mostly Cloudy 35 1.7 21 -6.1 57 57 W 6 9 29.97 1015 10 16 0.00 0.00
3:52 am 03:52 Mostly Cloudy 35 1.7 22 -5.6 59 59 W 5 7 29.97 1015 10 16 0.00 0.00
4:52 am 04:52 Cloudy 36 2.2 22 -5.6 57 57 VRB 5 7 29.99 1016 10 16 0.00 0.00
5:52 am 05:52 Partly Cloudy 35 1.7 21 -6.1 57 57 WNW 9 15 30.01 1016 10 16 0.00 0.00
6:52 am 06:52 Mostly Cloudy 35 1.7 21 -6.1 57 57 NW 10 17 30.02 1017 10 16 0.00 0.00
7:52 am 07:52 Partly Cloudy 35 1.7 21 -6.1 57 57 WNW 5 7 30.04 1017 10 16 0.00 0.00
8:52 am 08:52 Partly Cloudy 37 2.8 22 -5.6 54 54 WSW 8 13 30.06 1018 10 16 0.00 0.00
9:52 am 09:52 Mostly Sunny 40 4.4 22 -5.6 49 49 W 14 22 30.06 1018 10 16 0.00 0.00
10:52 am 10:52 Partly Cloudy 41 5 19 -7.2 41 41 W 17 28 30.08 1019 10 16 0.00 0.00
11:52 am 11:52 Partly Cloudy 43 6.1 20 -6.7 40 40 WNW 14 22 30.08 1019 10 16 0.00 0.00
12:52 pm 12:52 Mostly Cloudy 41 5 18 -7.8 39 39 W 16 26 30.09 1019 10 16 0.00 0.00
1:21 pm 13:21 Mostly Cloudy 42 5.6 19 -7.2 40 40 NW 16 26 30.09 1019 10 16 0.00 0.00
1:52 pm 13:52 Partly Cloudy 43 6.1 20 -6.7 40 40 NW 18 30 30.09 1019 10 16 0.00 0.00
2:52 pm 14:52 Mostly Sunny 43 6.1 12 -11.1 28 28 NW 9 15 30.10 1019 10 16 0.00 0.00
3:52 pm 15:52 Mostly Sunny 42 5.6 11 -11.7 28 28 WNW 13 20 30.11 1020 10 16 0.00 0.00
4:52 pm 16:52 Mostly Sunny 40 4.4 10 -12.2 29 29 NW 13 20 30.14 1021 10 16 0.00 0.00
5:52 pm 17:52 Mostly Clear 37 2.8 12 -11.1 36 36 NNW 10 17 30.15 1021 10 16 0.00 0.00
6:52 pm 18:52 Mostly Clear 36 2.2 8 -13.3 31 31 NNW 12 19 30.17 1022 10 16 0.00 0.00
7:52 pm 19:52 Mostly Clear 35 1.7 8 -13.3 32 32 NNW 9 15 30.19 1022 10 16 0.00 0.00
8:52 pm 20:52 Clear 33 0.6 7 -13.9 33 33 NW 13 20 30.19 1023 10 16 0.00 0.00
9:52 pm 21:52 Clear 32 0 7 -13.9 35 35 NNW 5 7 30.20 1023 10 16 0.00 0.00
10:52 pm 22:52 Mostly Clear 32 0 7 -13.9 35 35 N 5 7 30.22 1023 10 16 0.00 0.00
11:52 pm 23:52 Mostly Clear 31 -0.6 7 -13.9 36 36 NNW 6 9 30.24 1024 10 16 0.00 0.00

Powered by AerisWeather